RH
32 59 61 55 54 29 30 43 52 76 78 58 21 17 20 20 19 23 24 26 25 49 71 62 55 58 56 60 66 65 69 68 67 41 51 72 94 83 82 78 82 75 68 41
28 46 35 49 88 81 71 38 39 35 48 40 20 20 18 15 14 14 24 62 58 67 77 98 97 100 95 63 61 87 52 42 48 52 54 69 82 65 66 73 76 63 44 32
18 25 59 82 85 79 89 78 77 72 46 28 21 18 16 18 23 21 26 73 84 88 87 100 98 93 86 92 83 72 62 59 57 55 57 58 70 75 79 70 51 35 25 23
51 28 35 36 26 45 79 83 77 72 63 56 28 23 23 24 27 37 48 76 98 77 94 79 91 79 100 91 76 64 63 64 61 60 73 79 83 78 62 44 32 28 30 33
36 31 25 23 25 28 31 61 68 66 66 61 32 28 24 25 28 45 68 100 78 99 98 89 76 78 80 85 78 62 62 65 69 78 85 84 67 51 36 31 31 38 39 40
21 18 20 19 18 18 20 22 25 31 32 33 31 29 23 26 63 95 100 93 82 98 78 61 79 93 99 82 75 69 79 82 80 77 54 41 37 33 32 33 35 35 34 38
23 22 22 22 26 25 30 31 29 27 25 23 22 20 17 26 41 70 84 85 98 71 93 96 98 91 79 71 71 75 79 64 49 46 46 40 34 31 33 33 29 26 26 29
10 12 13 14 13 14 15 15 16 19 22 21 23 37 46 46 42 43 41 41 52 55 96 94 80 62 73 75 63 45 30 29 34 34 28 27 28 27 31 31 26 29 43 44
14 14 18 20 20 19 21 23 26 28 29 25 21 18 21 21 22 24 31 30 44 82 46 53 59 68 56 53 35 35 41 48 43 35 34 35 37 38 34 31 43 52 52 52
18 24 22 24 26 28 26 19 17 18 17 17 16 15 14 16 17 19 21 23 28 36 41 41 64 72 51 42 43 46 52 54 48 45 44 45 43 36 33 42 46 42 43 45
21 25 29 30 28 18 16 17 19 20 19 19 18 18 17 16 16 16 18 19 22 25 28 33 36 42 49 51 54 62 63 54 51 51 53 48 38 38 38 36 37 42 45 46
29 29 30 31 23 18 18 18 16 15 15 15 15 16 16 17 19 20 20 20 20 22 25 29 37 48 82 72 73 68 59 61 63 59 51 44 38 36 37 45 49 50 48 37
27 28 30 26 22 19 18 14 14 16 16 16 16 15 15 16 18 21 23 23 23 24 30 34 39 52 62 60 57 62 72 71 65 58 45 39 39 39 36 45 48 51 38 25
26 29 27 26 23 19 17 16 18 18 17 18 18 15 14 15 16 20 24 26 27 30 37 39 46 51 57 63 73 82 81 75 59 46 42 39 31 28 33 47 53 42 31 22
26 25 24 26 25 23 21 19 21 20 20 19 17 16 18 19 22 24 26 28 30 34 37 39 44 58 79 92 95 92 78 58 52 50 41 32 31 37 48 55 44 29 19 11
29 29 26 24 23 23 23 24 24 23 22 22 18 18 22 27 37 37 32 31 33 38 44 49 58 78 89 96 88 76 66 61 55 42 37 36 42 50 58 48 32 21 11 11
34 28 25 22 21 21 22 24 24 24 24 23 19 20 23 36 42 42 36 34 36 39 43 46 53 76 85 81 79 73 68 54 45 43 42 46 51 57 48 35 19 11 13 16
35 35 28 20 20 17 20 22 23 23 23 23 22 20 23 36 43 41 36 35 37 42 46 50 67 73 79 80 72 64 57 53 49 47 48 56 53 46 36 21 12 13 15 19
34 35 32 24 20 18 19 23 24 23 23 25 24 22 23 28 39 43 38 38 42 47 49 45 60 82 79 72 66 61 55 51 50 52 60 54 47 39 23 14 13 14 17 22
30 35 35 30 24 21 22 25 25 24 22 24 24 23 24 30 47 49 44 42 44 46 39 59 81 79 73 67 62 59 56 55 56 63 56 50 40 25 17 12 15 15 19 35
22 29 32 32 29 21 26 27 26 24 24 23 25 24 25 41 55 50 44 42 39 38 57 72 75 76 74 76 66 60 59 61 65 61 51 39 27 18 13 15 14 16 24 49
23 19 24 29 28 21 25 23 24 24 23 25 26 27 32 50 50 45 41 33 37 54 77 79 83 88 84 65 56 62 67 69 66 52 38 28 20 14 14 15 14 24 33 58
36 42 32 29 25 23 24 22 23 23 24 30 30 30 40 42 43 38 33 34 53 75 83 91 93 84 69 63 69 72 74 72 54 37 28 21 16 14 16 14 18 30 34 61
38 54 46 45 42 39 31 29 27 28 34 32 32 39 42 43 38 36 36 54 82 76 77 85 83 73 75 78 80 80 76 54 36 29 22 17 15 17 17 15 31 41 41 53
33 43 45 34 40 35 32 39 44 39 33 34 40 44 40 42 43 48 65 87 88 85 85 85 84 89 85 82 85 78 54 35 29 22 17 16 16 19 18 28 46 51 47 57
44 55 46 35 44 37 43 47 41 40 44 44 41 44 46 58 69 76 92 99 90 88 87 92 100 97 91 89 73 55 39 29 22 16 16 17 20 21 26 41 46 51 75 82
Wind_Speed
11 16 18 23 22 20 21 25 12 13 9 7 4 1 2 3 6 5 8 10 11 11 16 20 19 20 21 21 26 33 36 39 40 43 42 42 37 43 41 47 43 46 48 48
23 24 29 24 23 20 15 19 11 5 2 7 3 5 9 7 6 4 7 9 10 15 20 21 18 21 21 27 29 33 42 45 45 44 43 42 42 45 47 47 48 49 51 54
24 26 29 23 20 15 11 11 8 7 6 8 9 13 12 12 11 9 9 11 16 20 21 18 18 22 30 33 35 36 37 41 45 45 44 45 46 47 47 48 49 52 56 60
17 20 21 16 15 15 14 15 14 14 14 14 17 18 18 18 20 18 16 16 20 20 20 22 29 31 35 38 41 43 43 48 48 46 45 45 45 45 47 50 54 58 63 66
12 15 18 17 14 12 11 15 16 16 19 21 23 23 22 24 23 21 20 21 25 23 20 31 35 36 38 38 41 45 47 43 40 40 40 41 43 46 50 54 59 62 66 69
16 15 15 15 14 13 11 13 15 17 19 23 25 27 28 26 24 24 22 23 26 28 29 32 32 39 35 41 44 45 42 41 39 39 40 41 44 49 53 58 62 66 68 72
16 16 16 15 14 13 14 15 17 19 20 23 25 27 28 26 25 28 30 29 29 29 34 32 29 41 44 41 38 36 35 33 35 38 41 44 49 54 60 64 69 74 79 84
14 13 13 13 12 13 15 16 16 16 15 16 18 21 23 25 29 31 32 31 28 27 28 34 44 44 36 36 32 30 33 37 41 44 47 52 58 65 68 72 76 80 83 87
13 11 10 9 9 9 8 9 8 9 10 12 13 15 20 21 23 24 25 26 24 32 33 38 33 33 38 32 31 36 39 42 45 49 55 60 65 67 71 75 80 84 88 91
13 12 11 11 11 10 9 5 3 4 5 5 8 10 12 13 16 17 19 22 25 26 29 32 35 37 36 37 42 45 48 51 53 57 61 65 68 72 77 81 84 87 90 94
14 13 13 13 11 8 7 5 3 2 4 6 9 11 13 15 16 17 18 20 24 28 32 36 40 42 44 46 49 52 53 55 58 62 66 68 72 77 81 85 88 91 93 94
14 13 14 10 10 7 5 3 2 5 8 10 13 13 16 18 19 21 22 23 26 30 34 38 42 45 47 50 50 53 55 59 63 66 68 71 76 80 84 87 90 91 93 94
15 14 13 12 10 8 8 6 7 7 8 11 15 16 18 21 23 26 27 28 30 32 35 39 43 46 47 48 51 54 59 62 65 67 70 75 79 81 85 89 91 93 95 96
15 14 13 11 10 11 12 11 11 11 12 13 17 21 23 25 27 30 32 32 33 34 36 39 42 45 48 50 53 58 62 65 66 70 74 77 81 84 89 91 92 96 98 101
16 16 13 12 14 15 16 16 17 16 18 19 20 22 25 26 29 32 34 35 36 37 39 42 44 47 49 53 57 60 63 64 69 74 77 81 85 88 89 91 94 96 98 91
19 18 18 18 18 18 19 21 22 21 23 24 24 25 27 29 34 36 38 40 41 42 44 46 48 50 53 55 58 61 63 68 72 75 80 85 87 88 90 94 95 97 89 72
24 23 23 22 23 24 23 25 27 26 26 29 29 29 30 34 38 40 41 42 43 45 47 49 51 53 54 56 59 62 67 71 74 79 84 85 85 89 94 94 94 86 70 53
27 28 27 27 28 31 26 28 30 31 30 32 34 34 35 39 41 43 45 47 48 49 50 52 53 55 55 56 61 65 69 72 78 82 83 83 88 92 92 92 86 72 56 44
29 30 32 33 32 34 30 29 34 36 34 35 38 38 38 42 45 46 50 49 50 50 52 56 56 53 55 59 64 68 71 76 81 81 81 87 92 92 90 85 75 59 48 38
31 33 35 36 38 39 34 35 38 40 38 40 41 41 41 43 47 47 50 51 52 53 56 57 54 55 59 63 68 72 76 78 79 80 86 89 92 89 86 76 62 50 42 34
34 37 39 41 43 43 39 40 41 42 43 42 43 44 43 45 50 53 53 53 53 55 58 56 56 59 63 68 72 75 77 78 79 84 88 91 89 85 76 66 54 43 35 32
35 39 40 42 44 47 42 45 45 44 45 45 46 45 45 50 52 54 54 55 55 58 58 58 60 64 69 71 74 77 78 78 82 86 89 87 83 76 68 58 45 37 32 31
37 39 41 42 42 43 44 47 45 46 48 47 47 46 49 53 55 56 55 56 57 60 60 62 65 69 71 75 78 77 77 80 84 89 86 82 77 67 60 50 38 34 31 31
40 41 43 42 41 42 45 46 45 47 47 47 47 51 53 55 57 57 57 57 59 61 62 65 67 70 74 77 77 77 79 84 88 85 79 75 67 60 52 41 34 32 32 32
41 39 39 43 41 43 43 42 43 45 46 48 51 52 55 56 57 58 58 59 61 63 65 67 70 73 76 75 75 78 83 87 84 78 74 66 60 52 43 35 32 31 31 31
35 37 41 41 40 42 41 42 45 47 48 50 53 54 56 57 58 59 60 61 64 66 68 71 74 77 75 73 76 83 87 84 79 74 66 58 52 43 36 31 30 29 28 29
Wind_Direction
203 190 185 172 166 168 173 186 174 152 173 220 245 166 248 241 225 287 302 312 310 299 307 310 311 317 310 315 320 315 314 311 308 308 307 306 297 298 296 297 296 299 302 302
173 173 166 160 168 174 180 165 173 150 189 258 277 283 274 265 285 288 294 293 289 286 299 307 308 303 308 308 311 311 313 306 303 303 303 296 294 295 298 299 299 300 302 303
170 169 170 178 185 188 187 171 207 234 272 289 281 271 278 292 294 294 314 318 305 301 296 294 293 296 303 309 312 308 303 301 298 295 295 296 298 299 301 301 302 302 304 306
175 193 183 190 193 195 197 215 205 233 251 278 276 283 290 295 298 302 307 314 293 291 296 294 308 306 289 300 303 304 299 297 295 297 298 298 300 304 304 303 306 307 308 307
198 187 179 190 191 198 196 218 232 244 262 271 271 275 283 285 291 296 297 291 289 285 294 303 301 296 295 295 298 300 301 301 299 299 302 302 303 302 303 305 305 302 303 303
208 200 200 206 202 201 210 223 233 240 245 259 267 276 284 286 283 283 285 285 288 292 296 292 297 290 294 303 303 307 305 305 306 303 301 300 299 298 299 299 300 300 302 303
207 204 211 215 214 218 221 227 236 240 245 252 264 273 285 286 291 287 288 295 291 296 296 290 289 305 305 298 298 297 294 295 292 291 291 292 295 298 301 305 308 310 311 310
218 218 225 230 229 229 232 238 245 252 252 257 260 268 278 280 281 287 294 295 296 294 295 293 301 296 290 295 294 289 289 289 291 294 294 298 305 310 311 311 311 310 309 309
214 218 216 205 190 188 194 210 228 246 260 270 282 286 289 295 301 306 302 300 299 288 297 296 289 287 292 292 295 294 298 300 297 298 305 310 310 310 310 311 312 312 312 312
201 185 183 188 185 178 178 194 218 257 279 310 343 355 353 356 352 341 330 322 316 307 298 297 289 292 299 302 304 307 310 310 308 309 310 310 312 312 312 313 312 312 312 311
183 182 180 179 176 172 175 176 163 338 351 352 356 2 360 356 351 344 335 324 316 311 309 307 306 307 309 309 310 311 309 309 309 309 311 311 311 313 312 312 312 311 310 310
179 179 172 188 187 188 189 197 255 308 316 324 327 336 340 338 335 335 331 324 323 318 313 311 310 307 307 307 307 307 308 308 309 311 310 311 313 312 312 311 310 310 311 312
180 181 189 197 204 206 219 260 282 298 308 318 319 329 331 336 336 334 329 323 319 317 313 310 310 309 306 304 305 306 306 308 310 311 312 312 311 311 310 311 312 313 313 313
189 193 199 209 218 223 241 266 277 279 297 314 316 325 329 330 329 329 328 322 316 312 308 306 304 301 301 302 303 303 306 309 310 310 311 311 311 312 312 312 313 315 315 315
206 206 213 223 232 246 261 271 278 288 303 314 316 323 325 326 325 325 324 320 315 312 309 307 307 304 304 302 301 304 307 308 310 311 312 313 314 313 313 315 316 317 316 316
218 224 232 241 249 257 264 275 285 296 301 310 313 321 323 324 325 324 322 320 316 313 310 308 308 303 300 301 303 306 308 311 312 312 314 315 313 314 317 318 317 317 317 317
227 234 243 249 256 263 267 276 283 290 298 307 312 317 321 322 321 321 319 315 311 309 308 309 309 306 303 305 307 308 310 311 312 313 314 314 316 318 318 318 318 319 318 317
239 244 252 255 260 264 270 277 286 291 298 303 307 312 317 320 322 318 315 313 312 311 310 310 307 304 308 308 309 310 310 312 314 314 315 317 319 319 318 319 320 319 317 314
247 251 257 262 266 272 275 280 286 292 296 299 303 310 314 316 319 317 315 312 309 308 306 307 310 309 308 309 310 311 314 315 316 316 317 319 320 320 319 321 320 317 314 311
255 257 259 265 268 271 275 280 285 291 298 296 304 307 311 312 316 312 309 308 306 303 308 312 309 309 309 311 313 314 315 317 317 317 320 320 320 319 321 320 319 314 313 309
254 256 259 262 267 271 276 282 287 292 292 298 300 304 307 311 312 310 308 305 304 308 311 310 308 308 310 313 314 316 318 318 318 319 319 319 319 321 321 320 317 312 311 308
260 261 264 267 270 275 281 283 286 289 292 295 298 303 306 308 309 306 305 306 308 309 310 308 308 311 313 315 317 319 318 318 319 320 318 318 321 321 320 319 314 310 308 308
269 268 271 272 276 279 282 283 287 290 293 294 297 299 303 305 304 305 307 306 307 310 310 310 312 313 316 318 319 319 318 318 320 319 317 320 321 320 319 318 311 309 308 306
275 276 278 280 280 279 281 284 288 288 289 292 295 301 303 304 305 305 305 307 310 310 311 312 314 315 317 318 318 317 318 320 319 317 319 320 320 319 318 316 310 309 310 308
278 282 280 278 281 280 284 286 286 288 290 294 300 303 302 303 302 304 306 306 307 310 311 312 314 315 316 317 317 318 320 318 317 319 319 320 319 320 317 313 309 309 310 311
283 281 279 281 281 284 288 289 292 294 297 299 300 300 301 301 302 303 305 305 308 311 311 313 314 315 316 317 318 319 317 316 318 319 320 319 321 319 315 312 310 310 313 314